Time,TemperatureF,DewpointF,PressureIn,WindDirection,WindDirectionDegrees,WindSpeedMPH,WindSpeedGustMPH,Humidity,HourlyPrecipIn,Conditions,Clouds,dailyrainin,SoftwareType,DateUTC
2013-08-14 00:03:00,80.1,40.0,29.93,South,186,0.0,-999.0,24,-99.99,,,0.00,weatherlink.com 1.10,2013-08-14 07:03:00,
2013-08-14 00:18:00,79.2,39.0,29.93,South,186,0.0,-999.0,24,-99.99,,,0.00,weatherlink.com 1.10,2013-08-14 07:18:00,
2013-08-14 00:33:00,78.6,39.0,29.93,South,186,0.0,-999.0,24,-99.99,,,0.00,weatherlink.com 1.10,2013-08-14 07:33:00,
2013-08-14 00:48:00,78.2,40.0,29.92,South,186,0.0,-999.0,25,-99.99,,,0.00,weatherlink.com 1.10,2013-08-14 07:48:00,
2013-08-14 01:03:00,77.4,39.0,29.92,South,186,0.0,-999.0,25,-99.99,,,0.00,weatherlink.com 1.10,2013-08-14 08:03:00,
2013-08-14 01:18:00,76.5,39.0,29.92,South,186,0.0,-999.0,26,-99.99,,,0.00,weatherlink.com 1.10,2013-08-14 08:18:00,
2013-08-14 01:33:00,76.0,39.0,29.92,South,186,0.0,-999.0,26,-99.99,,,0.00,weatherlink.com 1.10,2013-08-14 08:33:00,
2013-08-14 01:48:00,76.6,39.0,29.91,South,186,0.0,-999.0,26,-99.99,,,0.00,weatherlink.com 1.10,2013-08-14 08:48:00,
2013-08-14 02:03:00,77.6,40.0,29.91,South,186,0.0,-999.0,26,-99.99,,,0.00,weatherlink.com 1.10,2013-08-14 09:03:00,
2013-08-14 02:18:00,77.4,40.0,29.91,South,186,0.0,-999.0,26,-99.99,,,0.00,weatherlink.com 1.10,2013-08-14 09:18:00,
2013-08-14 02:33:00,77.5,39.0,29.91,South,186,0.0,-999.0,25,-99.99,,,0.00,weatherlink.com 1.10,2013-08-14 09:33:00,
2013-08-14 02:48:00,77.6,40.0,29.91,South,186,0.0,-999.0,26,-99.99,,,0.00,weatherlink.com 1.10,2013-08-14 09:48:00,
2013-08-14 03:03:00,77.3,40.0,29.91,South,186,0.0,-999.0,26,-99.99,,,0.00,weatherlink.com 1.10,2013-08-14 10:03:00,
2013-08-14 03:18:00,77.2,40.0,29.91,South,186,0.0,-999.0,26,-99.99,,,0.00,weatherlink.com 1.10,2013-08-14 10:18:00,
2013-08-14 03:33:00,76.9,39.0,29.91,South,186,0.0,-999.0,26,-99.99,,,0.00,weatherlink.com 1.10,2013-08-14 10:33:00,
2013-08-14 03:48:00,77.2,40.0,29.90,South,186,0.0,-999.0,26,-99.99,,,0.00,weatherlink.com 1.10,2013-08-14 10:48:00,
2013-08-14 04:03:00,77.3,40.0,29.90,South,186,0.0,-999.0,26,-99.99,,,0.00,weatherlink.com 1.10,2013-08-14 11:03:00,
2013-08-14 04:18:00,77.0,40.0,29.91,South,186,0.0,-999.0,26,-99.99,,,0.00,weatherlink.com 1.10,2013-08-14 11:18:00,
2013-08-14 04:33:00,77.6,40.0,29.90,South,186,0.0,-999.0,26,-99.99,,,0.00,weatherlink.com 1.10,2013-08-14 11:33:00,
2013-08-14 04:48:00,78.1,40.0,29.90,South,186,0.0,-999.0,25,-99.99,,,0.00,weatherlink.com 1.10,2013-08-14 11:48:00,
2013-08-14 05:03:00,78.2,40.0,29.90,South,186,0.0,-999.0,25,-99.99,,,0.00,weatherlink.com 1.10,2013-08-14 12:03:00,
2013-08-14 05:18:00,78.2,40.0,29.90,South,186,0.0,-999.0,25,-99.99,,,0.00,weatherlink.com 1.10,2013-08-14 12:18:00,
2013-08-14 05:33:00,78.3,40.0,29.91,South,186,0.0,-999.0,25,-99.99,,,0.00,weatherlink.com 1.10,2013-08-14 12:33:00,
2013-08-14 05:48:00,78.1,40.0,29.91,South,186,0.0,-999.0,25,-99.99,,,0.00,weatherlink.com 1.10,2013-08-14 12:48:00,
2013-08-14 06:03:00,77.5,39.0,29.91,South,186,0.0,-999.0,25,-99.99,,,0.00,weatherlink.com 1.10,2013-08-14 13:03:00,
2013-08-14 06:18:00,77.2,35.0,29.91,South,186,0.0,-999.0,22,-99.99,,,0.00,weatherlink.com 1.10,2013-08-14 13:18:00,
2013-08-14 06:33:00,76.9,32.0,29.91,South,184,0.0,-999.0,19,-99.99,,,0.00,weatherlink.com 1.10,2013-08-14 13:33:00,
2013-08-14 06:48:00,77.4,36.0,29.91,South,184,0.0,-999.0,22,-99.99,,,0.00,weatherlink.com 1.10,2013-08-14 13:48:00,
2013-08-14 07:03:00,77.5,31.0,29.92,North,5,1.0,-999.0,18,-99.99,,,0.00,weatherlink.com 1.10,2013-08-14 14:03:00,
2013-08-14 07:18:00,78.2,30.0,29.92,NNE,13,0.0,-999.0,17,-99.99,,,0.00,weatherlink.com 1.10,2013-08-14 14:18:00,
2013-08-14 07:33:00,78.3,34.0,29.93,NNE,13,0.0,-999.0,20,-99.99,,,0.00,weatherlink.com 1.10,2013-08-14 14:33:00,
2013-08-14 07:48:00,79.5,31.0,29.93,NE,40,0.0,-999.0,17,-99.99,,,0.00,weatherlink.com 1.10,2013-08-14 14:48:00,
2013-08-14 08:03:00,81.8,31.0,29.93,NE,53,0.0,-999.0,16,-99.99,,,0.00,weatherlink.com 1.10,2013-08-14 15:03:00,
2013-08-14 08:18:00,83.0,34.0,29.93,NE,47,0.0,-999.0,17,-99.99,,,0.00,weatherlink.com 1.10,2013-08-14 15:18:00,
2013-08-14 08:33:00,84.2,36.0,29.93,NE,47,0.0,-999.0,18,-99.99,,,0.00,weatherlink.com 1.10,2013-08-14 15:33:00,
2013-08-14 08:48:00,83.5,37.0,29.93,NE,47,0.0,-999.0,19,-99.99,,,0.00,weatherlink.com 1.10,2013-08-14 15:48:00,
2013-08-14 09:03:00,83.8,41.0,29.93,NE,47,0.0,-999.0,22,-99.99,,,0.00,weatherlink.com 1.10,2013-08-14 16:03:00,
2013-08-14 09:18:00,84.1,38.0,29.93,NE,46,0.0,-999.0,19,-99.99,,,0.00,weatherlink.com 1.10,2013-08-14 16:18:00,
2013-08-14 09:33:00,84.2,41.0,29.94,NE,47,0.0,-999.0,22,-99.99,,,0.00,weatherlink.com 1.10,2013-08-14 16:33:00,
2013-08-14 09:48:00,84.5,42.0,29.94,NE,47,0.0,-999.0,22,-99.99,,,0.00,weatherlink.com 1.10,2013-08-14 16:48:00,
2013-08-14 10:03:00,84.5,43.0,29.94,NE,46,0.0,-999.0,23,-99.99,,,0.00,weatherlink.com 1.10,2013-08-14 17:03:00,
2013-08-14 10:18:00,83.8,43.0,29.95,NE,46,0.0,-999.0,24,-99.99,,,0.00,weatherlink.com 1.10,2013-08-14 17:18:00,
2013-08-14 10:48:00,84.7,44.0,29.95,NE,46,0.0,-999.0,24,-99.99,,,0.00,weatherlink.com 1.10,2013-08-14 17:48:00,
2013-08-14 11:18:00,85.1,42.0,29.94,North,355,0.0,-999.0,22,-99.99,,,0.00,weatherlink.com 1.10,2013-08-14 18:18:00,
2013-08-14 11:33:00,85.9,43.0,29.94,NW,304,0.0,-999.0,22,-99.99,,,0.00,weatherlink.com 1.10,2013-08-14 18:33:00,
2013-08-14 12:18:00,86.4,41.0,29.94,WNW,297,0.0,-999.0,20,-99.99,,,0.00,weatherlink.com 1.10,2013-08-14 19:18:00,
2013-08-14 12:33:00,86.8,44.0,29.94,WNW,294,0.0,-999.0,22,-99.99,,,0.00,weatherlink.com 1.10,2013-08-14 19:33:00,
2013-08-14 12:48:00,85.7,43.0,29.94,WNW,291,0.0,-999.0,22,-99.99,,,0.00,weatherlink.com 1.10,2013-08-14 19:48:00,
2013-08-14 13:03:00,86.6,42.0,29.94,WNW,288,0.0,-999.0,21,-99.99,,,0.00,weatherlink.com 1.10,2013-08-14 20:03:00,
2013-08-14 13:18:00,87.4,44.0,29.93,WNW,283,0.0,-999.0,22,-99.99,,,0.00,weatherlink.com 1.10,2013-08-14 20:18:00,
2013-08-14 13:33:00,86.6,46.0,29.93,West,277,0.0,-999.0,24,-99.99,,,0.00,weatherlink.com 1.10,2013-08-14 20:33:00,
2013-08-14 13:48:00,87.1,40.0,29.93,West,267,1.0,-999.0,19,-99.99,,,0.00,weatherlink.com 1.10,2013-08-14 20:48:00,
2013-08-14 14:03:00,89.5,42.0,29.93,WSW,257,0.0,-999.0,19,-99.99,,,0.00,weatherlink.com 1.10,2013-08-14 21:03:00,
2013-08-14 14:18:00,88.7,41.0,29.92,WSW,246,1.0,-999.0,19,-99.99,,,0.00,weatherlink.com 1.10,2013-08-14 21:18:00,
2013-08-14 14:33:00,89.5,42.0,29.92,WSW,240,0.0,-999.0,19,-99.99,,,0.00,weatherlink.com 1.10,2013-08-14 21:33:00,
2013-08-14 14:48:00,89.9,45.0,29.92,West,260,0.0,-999.0,21,-99.99,,,0.00,weatherlink.com 1.10,2013-08-14 21:48:00,
2013-08-14 15:03:00,90.9,40.0,29.92,West,259,1.0,-999.0,17,-99.99,,,0.00,weatherlink.com 1.10,2013-08-14 22:03:00,
2013-08-14 15:18:00,89.8,41.0,29.91,West,260,0.0,-999.0,18,-99.99,,,0.00,weatherlink.com 1.10,2013-08-14 22:18:00,
2013-08-14 15:33:00,90.4,40.0,29.90,West,259,1.0,-999.0,17,-99.99,,,0.00,weatherlink.com 1.10,2013-08-14 22:33:00,
2013-08-14 15:48:00,88.6,40.0,29.90,West,259,0.0,-999.0,18,-99.99,,,0.00,weatherlink.com 1.10,2013-08-14 22:48:00,
2013-08-14 16:03:00,89.0,43.0,29.90,WSW,257,1.0,-999.0,20,-99.99,,,0.00,weatherlink.com 1.10,2013-08-14 23:03:00,
2013-08-14 16:18:00,88.4,41.0,29.90,WSW,257,0.0,-999.0,19,-99.99,,,0.00,weatherlink.com 1.10,2013-08-14 23:18:00,
2013-08-14 16:33:00,88.4,43.0,29.89,West,259,1.0,-999.0,20,-99.99,,,0.00,weatherlink.com 1.10,2013-08-14 23:33:00,
2013-08-14 17:03:00,89.9,41.0,29.88,West,259,0.0,-999.0,18,-99.99,,,0.00,weatherlink.com 1.10,2013-08-15 00:03:00,
2013-08-14 17:18:00,88.3,41.0,29.88,WSW,256,0.0,-999.0,19,-99.99,,,0.00,weatherlink.com 1.10,2013-08-15 00:18:00,
2013-08-14 17:33:00,88.2,41.0,29.88,WSW,254,1.0,-999.0,19,-99.99,,,0.00,weatherlink.com 1.10,2013-08-15 00:33:00,
2013-08-14 17:48:00,88.8,40.0,29.87,WSW,254,0.0,-999.0,18,-99.99,,,0.00,weatherlink.com 1.10,2013-08-15 00:48:00,
2013-08-14 18:03:00,88.5,44.0,29.87,WSW,253,0.0,-999.0,21,-99.99,,,0.00,weatherlink.com 1.10,2013-08-15 01:03:00,
2013-08-14 18:18:00,88.3,44.0,29.86,WSW,253,0.0,-999.0,21,-99.99,,,0.00,weatherlink.com 1.10,2013-08-15 01:18:00,
2013-08-14 18:33:00,87.7,35.0,29.86,WSW,249,0.0,-999.0,15,-99.99,,,0.00,weatherlink.com 1.10,2013-08-15 01:33:00,
2013-08-14 18:48:00,87.7,36.0,29.86,WSW,249,0.0,-999.0,16,-99.99,,,0.00,weatherlink.com 1.10,2013-08-15 01:48:00,
2013-08-14 19:03:00,88.1,40.0,29.86,WSW,249,0.0,-999.0,18,-99.99,,,0.00,weatherlink.com 1.10,2013-08-15 02:03:00,
2013-08-14 19:18:00,88.1,35.0,29.87,WSW,249,0.0,-999.0,15,-99.99,,,0.00,weatherlink.com 1.10,2013-08-15 02:18:00,
2013-08-14 19:33:00,86.5,37.0,29.87,WSW,249,0.0,-999.0,17,-99.99,,,0.00,weatherlink.com 1.10,2013-08-15 02:33:00,
2013-08-14 19:48:00,85.5,41.0,29.86,WSW,249,0.0,-999.0,21,-99.99,,,0.00,weatherlink.com 1.10,2013-08-15 02:48:00,
2013-08-14 20:03:00,84.6,45.0,29.87,WSW,249,0.0,-999.0,25,-99.99,,,0.00,weatherlink.com 1.10,2013-08-15 03:03:00,
2013-08-14 20:18:00,83.5,45.0,29.86,WSW,249,0.0,-999.0,26,-99.99,,,0.00,weatherlink.com 1.10,2013-08-15 03:18:00,
2013-08-14 20:33:00,82.7,42.0,29.87,North,355,0.0,-999.0,24,-99.99,,,0.00,weatherlink.com 1.10,2013-08-15 03:33:00,
2013-08-14 20:48:00,82.2,39.0,29.86,NNE,26,1.0,-999.0,21,-99.99,,,0.00,weatherlink.com 1.10,2013-08-15 03:48:00,
2013-08-14 21:03:00,82.6,36.0,29.87,North,355,5.0,-999.0,19,-99.99,,,0.00,weatherlink.com 1.10,2013-08-15 04:03:00,
2013-08-14 21:18:00,82.8,36.0,29.87,North,11,1.0,-999.0,19,-99.99,,,0.00,weatherlink.com 1.10,2013-08-15 04:18:00,
2013-08-14 21:33:00,82.8,35.0,29.87,NE,47,7.0,-999.0,18,-99.99,,,0.00,weatherlink.com 1.10,2013-08-15 04:33:00,
2013-08-14 21:48:00,82.9,38.0,29.88,NNW,346,6.0,-999.0,20,-99.99,,,0.00,weatherlink.com 1.10,2013-08-15 04:48:00,
2013-08-14 22:03:00,82.7,38.0,29.88,NNE,17,3.0,-999.0,20,-99.99,,,0.00,weatherlink.com 1.10,2013-08-15 05:03:00,
2013-08-14 22:18:00,82.3,39.0,29.87,NNE,31,5.0,-999.0,21,-99.99,,,0.00,weatherlink.com 1.10,2013-08-15 05:18:00,
2013-08-14 22:33:00,82.1,38.0,29.88,NNE,29,4.0,-999.0,21,-99.99,,,0.00,weatherlink.com 1.10,2013-08-15 05:33:00,
2013-08-14 22:48:00,82.4,36.0,29.88,North,10,2.0,-999.0,19,-99.99,,,0.00,weatherlink.com 1.10,2013-08-15 05:48:00,
2013-08-14 23:03:00,82.6,36.0,29.88,ENE,57,1.0,-999.0,19,-99.99,,,0.00,weatherlink.com 1.10,2013-08-15 06:03:00,
2013-08-14 23:18:00,82.6,38.0,29.88,North,360,5.0,-999.0,20,-99.99,,,0.00,weatherlink.com 1.10,2013-08-15 06:18:00,
2013-08-14 23:33:00,82.4,37.0,29.88,NNE,22,0.0,-999.0,20,-99.99,,,0.00,weatherlink.com 1.10,2013-08-15 06:33:00,
2013-08-14 23:48:00,82.2,37.0,29.88,NE,39,0.0,-999.0,20,-99.99,,,0.00,weatherlink.com 1.10,2013-08-15 06:48:00,